This demonstration page uses our WeatherBlox Daily Observations layout. Learn more.

Left ArrowRight Arrow

38.88101, -77.10428

Hourly Observations for December 23, 2019

Temp ( °F °C ) Dew Point ( °F °C ) Humidity (%) Winds ( mph kmh ) Pressure ( in mb ) Visibility ( mi km ) Precip ( " mm )
12:52 am 00:52 Cloudy 34 1.1 31 -0.6 89 89 S 7 11 30.25 1024 7 11.26538 0 0
1:52 am 01:52 Cloudy 34 1.1 31 -0.6 89 89 S 5 7 30.24 1024 8 12.87472 0 0
2:52 am 02:52 Cloudy 33 0.6 31 -0.6 92 92 S 7 11 30.23 1024 8 12.87472 0 0
3:52 am 03:52 Cloudy 33 0.6 29 -1.7 85 85 Calm 30.22 1023 8 12.87472 0 0
4:52 am 04:52 Cloudy 33 0.6 30 -1.1 89 89 SW 3 6 30.21 1023 8 12.87472 0 0
5:52 am 05:52 Cloudy 32 0 30 -1.1 92 92 Calm 30.22 1023 8 12.87472 0 0
6:52 am 06:52 Mostly Cloudy 31 -0.6 29 -1.7 92 92 Calm 30.21 1023 8 12.87472 0 0
7:52 am 07:52 Mostly Cloudy with Mist and Fog 32 0 30 -1.1 92 92 Calm 30.21 1023 6 9.65604 0 0
8:52 am 08:52 Mostly Cloudy with Mist and Fog 33 0.6 31 -0.6 92 92 ENE 3 6 30.22 1023 5 8.0467 0 0
9:52 am 09:52 Mostly Cloudy with Mist and Fog 36 2.2 33 0.6 89 89 Calm 30.21 1023 5 8.0467 0 0
10:52 am 10:52 Mostly Cloudy with Haze 39 3.9 33 0.6 79 79 NE 3 6 30.19 1022 5 8.0467 0 0
11:52 am 11:52 Mostly Cloudy with Haze 41 5 33 0.6 73 73 Calm 30.16 1021 5 8.0467 0 0
12:52 pm 12:52 Mostly Cloudy 46 7.8 34 1.1 63 63 S 7 11 30.13 1020 7 11.26538 0 0
1:52 pm 13:52 Mostly Cloudy 50 10 35 1.7 57 57 SSE 3 6 30.11 1020 7 11.26538 0 0
2:52 pm 14:52 Partly Cloudy 52 11.1 34 1.1 50 50 S 7 11 30.11 1020 9 14.48406 0 0
3:52 pm 15:52 Mostly Cloudy 50 10 31 -0.6 48 48 S 9 15 30.11 1020 10 16.0934 0 0
4:52 pm 16:52 Mostly Cloudy 46 7.8 33 0.6 61 61 SSW 5 7 30.11 1020 10 16.0934 0 0
5:52 pm 17:52 Mostly Cloudy 45 7.2 33 0.6 63 63 S 6 9 30.08 1019 10 16.0934 0 0
6:52 pm 18:52 Mostly Cloudy 46 7.8 32 0 58 58 Calm 30.09 1019 10 16.0934 0 0
7:52 pm 19:52 Mostly Cloudy 44 6.7 33 0.6 65 65 S 6 9 30.06 1018 10 16.0934 0 0
8:52 pm 20:52 Mostly Cloudy 43 6.1 33 0.6 68 68 SSW 6 9 30.05 1018 10 16.0934 0 0
9:52 pm 21:52 Mostly Cloudy 38 3.3 33 0.6 83 83 S 6 9 30.05 1018 10 16.0934 0 0
10:52 pm 22:52 Partly Cloudy 38 3.3 32 0 79 79 NNE 5 7 30.05 1018 9 14.48406 0 0
11:52 pm 23:52 Cloudy 39 3.9 33 0.6 79 79 SSW 3 6 30.04 1017 9 14.48406 0 0

Powered by AerisWeather